Flag for U.S.A. Weather past 2 weeks in Stockton, California, U.S.A.

Now
63 °F

Rain. Partly sunny.


Feels Like: 63 °F
Forecast: 57 / 71 °F
Wind: 8 mph from South

Location: Stockton Metropolitan Airport

Current Time: Oct 25, 2014 at 12:14:14 PM

Latest Report: Oct 25, 2014 at 10:55 AM


Visibility: 5 mi

Pressure: 30.06 "Hg

Humidity: 84%

Dew point: 58 °F

Location of StocktonLocation

Historic Weather in Stockton — Graph

°F

Stockton temperature yesterday

Maximum temperature yesterday: 80 °F (at 2:55 PM)
Minimum temperature yesterday: 53 °F (at 4:55 AM)
Average temperature yesterday: 64 °F

Past Weeks' High & Low Weather Summary

 TemperatureHumidityPressure
High92 °F (Oct 13, 2:55 PM)90% (Oct 14, 6:55 AM)30.09 "Hg (Oct 14, 6:55 AM)
Low49 °F (Oct 22, 5:55 AM)13% (Oct 12, 5:55 PM)29.78 "Hg (Oct 14, 2:55 PM)
Average66 °F58%29.95 "Hg
* Reported Oct 10 10:55 AM — Oct 25 10:55 AM, Stockton, Weather by CustomWeather, © 2014

Note: Actual official high and low records may vary slightly from our data, if they occured in-between our weather recording intervals... More about our weather records

Advertising

Stockton weather history for previous 24 hours

 ConditionsComfort  
Time TempWeatherWind HumidityBarometerVisibility
10:55 AM
Oct 25
63 °FRain. Partly sunny.8 mph84%30.06 "Hg5 mi
9:55 AM62 °FOvercast.5 mph83%30.05 "Hg10 mi
8:55 AM61 °FLight rain. More clouds than sun.6 mph81%30.03 "Hg8 mi
7:55 AM61 °FPassing clouds.8 mph75%29.97 "Hg10 mi
6:55 AM57 °FClear.8 mph81%29.94 "Hg10 mi
5:55 AM58 °FClear.8 mph78%29.93 "Hg10 mi
4:55 AM57 °FClear.8 mph81%29.92 "Hg10 mi
3:55 AM56 °FClear.13 mph84%29.92 "Hg10 mi
2:55 AM55 °FClear.No wind83%29.94 "Hg10 mi
1:55 AM55 °FClear.No wind83%29.93 "Hg10 mi
12:55 AM54 °FClear.No wind83%29.93 "Hg4 mi
11:55 PM
Oct 24
57 °FClear.No wind87%29.91 "Hg10 mi
10:55 PM60 °FClear.5 mph78%29.90 "Hg10 mi
9:55 PM62 °FClear.3 mph78%29.90 "Hg10 mi
8:55 PM64 °FClear.8 mph75%29.88 "Hg10 mi
7:55 PM68 °FClear.9 mph65%29.87 "Hg10 mi
6:55 PM71 °FSunny.12 mph57%29.85 "Hg10 mi
5:55 PM76 °FSunny.8 mph47%29.84 "Hg10 mi
4:55 PM79 °FSunny.6 mph41%29.85 "Hg9 mi
3:55 PM79 °FSunny.6 mph42%29.85 "Hg10 mi
2:55 PM80 °FSunny.7 mph36%29.86 "Hg10 mi
1:55 PM78 °FSunny.8 mph42%29.88 "Hg10 mi
12:55 PM72 °FSunny.3 mph55%29.92 "Hg10 mi
Weather by CustomWeather, © 2014

See weather overviewHow to use our weather pages